Air Resources Laboratory banner image
Air Resources Laboratory web site National Oceanic and Atmospheric Administration (NOAA)

ne/ roundup


Office: OAX

ASUS43 KOAX 051703
RWRNE

WEATHER ROUNDUP FOR NEBRASKA
NATIONAL WEATHER SERVICE OMAHA NE
1100 AM CST SAT DEC 05 2020

NOTES: SATELLITE DATA IS BEING USED TO AUGMENT CLOUD COVER ABOVE
       12000 FEET.
       "FAIR" INDICATES FEW OR NO CLOUDS BELOW 12,000 FEET WITH NO
       SIGNIFICANT WEATHER AND/OR OBSTRUCTIONS TO VISIBILITY.


NEZ001>004-019>022-054>056-051800-
NEBRASKA PANHANDLE

CITY           SKY/WX    TMP DP  RH WIND       PRES   REMARKS
SCOTTSBLUFF    SUNNY     41  16  36 W14       30.41F
ALLIANCE       SUNNY     43  21  41 W7        30.37S
CHADRON        SUNNY     43  18  36 W12       30.40R
GORDON         FAIR      44  19  35 NW7       30.37R
KIMBALL        SUNNY     47  15  27 N13       30.41S
SIDNEY         SUNNY     45  17  32 NW15      30.39S
$$

NEZ057>060-069>072-079>082-051800-
SOUTHWEST NEBRASKA

CITY           SKY/WX    TMP DP  RH WIND       PRES   REMARKS
NORTH PLATTE   SUNNY     51  25  36 NW13G20   30.34S
IMPERIAL       SUNNY     47  21  35 NW14      30.37S
LEXINGTON      SUNNY     49  25  38 N14       30.31S
MCCOOK         SUNNY     49  23  36 N16       30.34R
OGALLALA       SUNNY     45  19  34 NW15      30.37R
$$

NEZ005>010-023>029-035>040-094-051800-
NORTH CENTRAL NEBRASKA

CITY           SKY/WX    TMP DP  RH WIND       PRES   REMARKS
VALENTINE      SUNNY     48  24  39 NW10      30.32F
AINSWORTH      SUNNY     44  24  45 NW13      30.32S
BROKEN BOW     SUNNY     48  25  40 NW18G31   30.28F
O'NEILL        SUNNY     44  27  51 NW12      30.29S
ORD            SUNNY     43  26  51 NW15      30.27F
THEDFORD       SUNNY     47  26  42 NW13      30.35R
$$

NEZ041-046>049-061>064-073>077-083>087-051800-
SOUTH CENTRAL NEBRASKA

CITY           SKY/WX    TMP DP  RH WIND       PRES   REMARKS
GRAND ISLAND   SUNNY     45  27  49 N15       30.29R
AURORA         SUNNY     44  29  55 N18G24    30.27S
HASTINGS       SUNNY     44  27  51 N21       30.28R
HEBRON         SUNNY     43  28  54 N16G22    30.27S
HOLDREGE       SUNNY     46  26  46 NW9       30.30S
KEARNEY        SUNNY     46  25  43 N17       30.29S
YORK           SUNNY     41  28  60 N16G23    30.25F
$$

NEZ011>018-030>034-042>045-051800-
NORTHEAST NEBRASKA

CITY           SKY/WX    TMP DP  RH WIND       PRES   REMARKS
NORFOLK        SUNNY     41  26  55 N10       30.24F
ALBION         SUNNY     43  28  55 N16G25    30.25S
BLAIR          SUNNY     37  28  70 NW10      30.22R WCI  30
COLUMBUS       SUNNY     40  28  62 NW13      30.26S WCI  32
FREMONT        SUNNY     40  28  62 NW16      30.24R WCI  32
TEKAMAH        SUNNY     41  29  62 N13       30.23R
WAYNE          MOSUNNY   38  28  67 NW13      30.24S WCI  30
$$

NEZ050>053-065>068-078-088>093-051800-
SOUTHEAST NEBRASKA

CITY           SKY/WX    TMP DP  RH WIND       PRES   REMARKS
LINCOLN        SUNNY     42  26  53 N15       30.25F
OMAHA EPPLEY   PTSUNNY   37  27  67 N10       30.22S WCI  30
BEATRICE       SUNNY     42  28  57 N12G18    30.25R
FALLS CITY     SUNNY     41  29  62 NW10      30.21S
NEBRASKA CITY  SUNNY     41  30  64 N14       30.22F
PLATTSMOUTH    SUNNY     38  28  66 NW10      30.21F WCI  31
$$

NEZ044-045-051>053-067-051800-
OMAHA AREA

CITY           SKY/WX    TMP DP  RH WIND       PRES   REMARKS
OMAHA EPPLEY   PTSUNNY   37  27  67 N10       30.22S WCI  30
BLAIR          SUNNY     37  28  70 NW10      30.22R WCI  30
FREMONT        SUNNY     40  28  62 NW16      30.24R WCI  32
MILLARD        SUNNY     39  28  63 NW8       30.23F WCI  34
OFFUTT AFB     SUNNY     39  26  59 NW9       30.21F WCI  33
PLATTSMOUTH    SUNNY     38  28  66 NW10      30.21F WCI  31
WAHOO          FAIR      41  29  61 N17G23    30.24S
$$


ASUS43 KOAX 051710
RWRNE

WEATHER ROUNDUP FOR NEBRASKA
NATIONAL WEATHER SERVICE OMAHA NE
1100 AM CST SAT DEC 05 2020

NOTES: SATELLITE DATA IS BEING USED TO AUGMENT CLOUD COVER ABOVE
       12000 FEET.
       "FAIR" INDICATES FEW OR NO CLOUDS BELOW 12,000 FEET WITH NO
       SIGNIFICANT WEATHER AND/OR OBSTRUCTIONS TO VISIBILITY.


NEZ001>004-019>022-054>056-051800-
NEBRASKA PANHANDLE

CITY           SKY/WX    TMP DP  RH WIND       PRES   REMARKS
SCOTTSBLUFF    SUNNY     41  16  36 W14       30.41F
ALLIANCE       SUNNY     43  21  41 W7        30.37S
CHADRON        SUNNY     43  18  36 W12       30.40R
GORDON         FAIR      44  19  35 NW7       30.37R
KIMBALL        SUNNY     47  15  27 N13       30.41S
SIDNEY         SUNNY     45  17  32 NW15      30.39S
$$

NEZ057>060-069>072-079>082-051800-
SOUTHWEST NEBRASKA

CITY           SKY/WX    TMP DP  RH WIND       PRES   REMARKS
NORTH PLATTE   SUNNY     51  25  36 NW13G20   30.34S
IMPERIAL       SUNNY     47  21  35 NW14      30.37S
LEXINGTON      SUNNY     49  25  38 N14       30.31S
MCCOOK         SUNNY     49  23  36 N16       30.34R
OGALLALA       SUNNY     45  19  34 NW15      30.37R
$$

NEZ005>010-023>029-035>040-094-051800-
NORTH CENTRAL NEBRASKA

CITY           SKY/WX    TMP DP  RH WIND       PRES   REMARKS
VALENTINE      SUNNY     48  24  39 NW10      30.32F
AINSWORTH      SUNNY     44  24  45 NW13      30.32S
BROKEN BOW     SUNNY     48  25  40 NW18G31   30.28F
O'NEILL        SUNNY     44  27  51 NW12      30.29S
ORD            SUNNY     43  26  51 NW15      30.27F
THEDFORD       SUNNY     47  26  42 NW13      30.35R
$$

NEZ041-046>049-061>064-073>077-083>087-051800-
SOUTH CENTRAL NEBRASKA

CITY           SKY/WX    TMP DP  RH WIND       PRES   REMARKS
GRAND ISLAND   SUNNY     45  27  49 N15       30.29R
AURORA         SUNNY     44  29  55 N18G24    30.27S
HASTINGS       SUNNY     44  27  51 N21       30.28R
HEBRON         SUNNY     43  28  54 N16G22    30.27S
HOLDREGE       SUNNY     46  26  46 NW9       30.30S
KEARNEY        SUNNY     46  25  43 N17       30.29S
YORK           SUNNY     41  28  60 N16G23    30.25F
$$

NEZ011>018-030>034-042>045-051800-
NORTHEAST NEBRASKA

CITY           SKY/WX    TMP DP  RH WIND       PRES   REMARKS
NORFOLK        MOSUNNY   41  26  55 N10       30.24F
ALBION         SUNNY     43  28  55 N16G25    30.25S
BLAIR          SUNNY     37  28  70 NW10      30.22R WCI  30
COLUMBUS       SUNNY     40  28  62 NW13      30.26S WCI  32
FREMONT        SUNNY     40  28  62 NW16      30.24R WCI  32
TEKAMAH        MOSUNNY   41  29  62 N13       30.23R
WAYNE          SUNNY     38  28  67 NW13      30.24S WCI  30
$$

NEZ050>053-065>068-078-088>093-051800-
SOUTHEAST NEBRASKA

CITY           SKY/WX    TMP DP  RH WIND       PRES   REMARKS
LINCOLN        SUNNY     42  26  53 N15       30.25F
OMAHA EPPLEY   PTSUNNY   37  27  67 N10       30.22S WCI  30
BEATRICE       SUNNY     42  28  57 N12G18    30.25R
FALLS CITY     SUNNY     41  29  62 NW10      30.21S
NEBRASKA CITY  SUNNY     41  30  64 N14       30.22F
PLATTSMOUTH    SUNNY     38  28  66 NW10      30.21F WCI  31
$$

NEZ044-045-051>053-067-051800-
OMAHA AREA

CITY           SKY/WX    TMP DP  RH WIND       PRES   REMARKS
OMAHA EPPLEY   PTSUNNY   37  27  67 N10       30.22S WCI  30
BLAIR          SUNNY     37  28  70 NW10      30.22R WCI  30
FREMONT        SUNNY     40  28  62 NW16      30.24R WCI  32
MILLARD        SUNNY     39  28  63 NW8       30.23F WCI  34
OFFUTT AFB     SUNNY     39  26  59 NW9       30.21F WCI  33
PLATTSMOUTH    SUNNY     38  28  66 NW10      30.21F WCI  31
WAHOO          FAIR      41  29  61 N17G23    30.24S
$$




Office: FSD ASUS43 KFSD 051702 RWRSD WEATHER ROUNDUP FOR SOUTH DAKOTA NATIONAL WEATHER SERVICE SIOUX FALLS SD 1100 AM CST SAT DEC 05 2020 NOTE: "FAIR" INDICATES FEW OR NO CLOUDS BELOW 12,000 FEET WITH NO SIGNIFICANT WEATHER AND/OR OBSTRUCTIONS TO VISIBILITY. SDZ001>005-009-010-012>017-051800- NORTHWEST AND NORTH CENTRAL SOUTH DAKOTA CITY SKY/WX TMP DP RH WIND PRES REMARKS BUFFALO N/A 44 23 43 W13 30.31R FAITH N/A 43 23 45 NW14 30.30F MOBRIDGE SUNNY 40 25 55 NW10 30.24F $$ SDZ012>016-024>037-041>051-057-063-072>074-051800- SOUTHWEST AND SOUTH CENTRAL SOUTH DAKOTA CITY SKY/WX TMP DP RH WIND PRES REMARKS RAPID CTY ARPT SUNNY 49 21 33 W6 30.35S PIERRE SUNNY 45 26 47 NW15 30.28S CUSTER SUNNY 48 17 29 CALM 30.36R ELLSWORTH AFB SUNNY 50 20 31 W8 30.34S PHILIP SUNNY 47 25 42 W9 30.33F PINE RIDGE SUNNY 42 18 37 W8 30.38S SPEARFISH FAIR 46 19 34 W8 30.37S WINNER FAIR 44 24 45 W12 30.31F $$ SDZ004>011-016>023-039-040-051800- NORTHEAST SOUTH DAKOTA CITY SKY/WX TMP DP RH WIND PRES REMARKS ABERDEEN SUNNY 43 28 55 NW14 30.21S WATERTOWN SUNNY 36 29 75 W6 30.17F BROOKINGS SUNNY 35 26 69 NW10 30.19S WCI 27 SISSETON N/A 46 29 51 NW17 30.12F $$ SDZ017-020-022-023-036>040-048>070-051800- SOUTHEAST SOUTH DAKOTA CITY SKY/WX TMP DP RH WIND PRES REMARKS SIOUX FALLS MOSUNNY 37 27 67 NW9 30.21S HURON SUNNY 41 29 62 NW16 30.24S CHAMBERLAIN SUNNY 40 28 60 W10 30.29S MITCHELL SUNNY 42 29 59 NW10 30.26S YANKTON SUNNY 38 27 64 W16 30.26S $$ ABBREVIATIONS USED IN REMARKS TC - TEMPERATURE IN CELSIUS WCI - WIND CHILL INDEX HX - HEAT INDEX VSB - VISIBILITY ASUS43 KFSD 051702 RWRFSD WEATHER ROUNDUP FOR SE SOUTH DAKOTA/SW MINNESOTA/NW IOWA NATIONAL WEATHER SERVICE SIOUX FALLS SD 1100 AM CST SAT DEC 05 2020 NOTE: "FAIR" INDICATES FEW OR NO CLOUDS BELOW 12,000 FEET WITH NO SIGNIFICANT WEATHER AND OR OBSTRUCTIONS TO VISIBILITY. SDZ038>040-050-052>070-051800- SOUTHEAST SOUTH DAKOTA CITY SKY/WX TMP DP RH WIND PRES REMARKS BROOKINGS SUNNY 35 26 69 NW10 30.19S WCI 27 CHAMBERLAIN SUNNY 40 28 60 W10 30.29S HURON SUNNY 41 29 62 NW16 30.24S MITCHELL SUNNY 42 29 59 NW10 30.26S SIOUX FALLS MOSUNNY 37 27 67 NW9 30.21S WINNER FAIR 44 24 45 W12 30.31F YANKTON SUNNY 38 27 64 W16 30.26S $$ MNZ071-072-080-081-089-090-097-098-051800- SOUTHWEST MINNESOTA CITY SKY/WX TMP DP RH WIND PRES REMARKS FAIRMONT SUNNY 36 28 73 NW8 30.17F JACKSON SUNNY 36 28 75 NW8 30.16S LUVERNE N/A 34 27 75 NW12 30.20S WCI 25 MARSHALL MOSUNNY 37 27 67 NW10 30.17F MONTEVIDEO SUNNY 34 27 75 N9 30.16F WCI 26 PIPESTONE N/A 34 28 80 NW12 30.17S WCI 25 REDWOOD FALLS SUNNY 33 27 78 W10 30.16F WCI 25 TRACY SUNNY 37 27 67 NW9 30.17S WORTHINGTON SUNNY 38 29 70 NW6 30.17S $$ IAZ001>003-012>014-020>022-031-032-NEZ013-014-SDZ071-051800- NORTHWEST IOWA CITY SKY/WX TMP DP RH WIND PRES REMARKS CHEROKEE SUNNY 37 32 81 N6 30.19F DENISON SUNNY 39 30 70 NW7 30.21S ESTHERVILLE SUNNY 37 29 72 W8 30.16F LE MARS MOSUNNY 34 27 75 NW10 30.21S WCI 26 MAURICE FAIR 36 34 93 NW13 30.20F SHELDON SUNNY 34 30 86 NW9 30.17F WCI 26 SIOUX CITY MOSUNNY 33 25 72 NW14 30.23F WCI 23 SPENCER SUNNY 40 30 67 NW7 30.17F STORM LAKE SUNNY 37 32 81 NW9 30.15F $$ ABBREVIATIONS USED IN REMARKS TC - TEMPERATURE IN CELSIUS WCI - WIND CHILL INDEX HX - HEAT INDEX VSB - VISIBILITY ASUS43 KFSD 051710 RWRSD WEATHER ROUNDUP FOR SOUTH DAKOTA NATIONAL WEATHER SERVICE SIOUX FALLS SD 1100 AM CST SAT DEC 05 2020 NOTE: "FAIR" INDICATES FEW OR NO CLOUDS BELOW 12,000 FEET WITH NO SIGNIFICANT WEATHER AND/OR OBSTRUCTIONS TO VISIBILITY. SDZ001>005-009-010-012>017-051800- NORTHWEST AND NORTH CENTRAL SOUTH DAKOTA CITY SKY/WX TMP DP RH WIND PRES REMARKS BUFFALO N/A 44 23 43 W13 30.31R FAITH N/A 43 23 45 NW14 30.30F MOBRIDGE SUNNY 40 25 55 NW10 30.24F $$ SDZ012>016-024>037-041>051-057-063-072>074-051800- SOUTHWEST AND SOUTH CENTRAL SOUTH DAKOTA CITY SKY/WX TMP DP RH WIND PRES REMARKS RAPID CTY ARPT SUNNY 49 21 33 W6 30.35S PIERRE SUNNY 45 26 47 NW15 30.28S CUSTER SUNNY 48 17 29 CALM 30.36R ELLSWORTH AFB SUNNY 50 20 31 W8 30.34S PHILIP SUNNY 47 25 42 W9 30.33F PINE RIDGE SUNNY 42 18 37 W8 30.38S SPEARFISH FAIR 46 19 34 W8 30.37S WINNER FAIR 44 24 45 W12 30.31F $$ SDZ004>011-016>023-039-040-051800- NORTHEAST SOUTH DAKOTA CITY SKY/WX TMP DP RH WIND PRES REMARKS ABERDEEN SUNNY 43 28 55 NW14 30.21S WATERTOWN SUNNY 36 29 75 W6 30.17F BROOKINGS SUNNY 35 26 69 NW10 30.19S WCI 27 SISSETON N/A 46 29 51 NW17 30.12F $$ SDZ017-020-022-023-036>040-048>070-051800- SOUTHEAST SOUTH DAKOTA CITY SKY/WX TMP DP RH WIND PRES REMARKS SIOUX FALLS MOSUNNY 37 27 67 NW9 30.21S HURON SUNNY 41 29 62 NW16 30.24S CHAMBERLAIN SUNNY 40 28 60 W10 30.29S MITCHELL SUNNY 42 29 59 NW10 30.26S YANKTON SUNNY 38 27 64 W16 30.26S $$ ABBREVIATIONS USED IN REMARKS TC - TEMPERATURE IN CELSIUS WCI - WIND CHILL INDEX HX - HEAT INDEX VSB - VISIBILITY ASUS43 KFSD 051710 RWRFSD WEATHER ROUNDUP FOR SE SOUTH DAKOTA/SW MINNESOTA/NW IOWA NATIONAL WEATHER SERVICE SIOUX FALLS SD 1100 AM CST SAT DEC 05 2020 NOTE: "FAIR" INDICATES FEW OR NO CLOUDS BELOW 12,000 FEET WITH NO SIGNIFICANT WEATHER AND OR OBSTRUCTIONS TO VISIBILITY. SDZ038>040-050-052>070-051800- SOUTHEAST SOUTH DAKOTA CITY SKY/WX TMP DP RH WIND PRES REMARKS BROOKINGS SUNNY 35 26 69 NW10 30.19S WCI 27 CHAMBERLAIN SUNNY 40 28 60 W10 30.29S HURON SUNNY 41 29 62 NW16 30.24S MITCHELL SUNNY 42 29 59 NW10 30.26S SIOUX FALLS MOSUNNY 37 27 67 NW9 30.21S WINNER FAIR 44 24 45 W12 30.31F YANKTON SUNNY 38 27 64 W16 30.26S $$ MNZ071-072-080-081-089-090-097-098-051800- SOUTHWEST MINNESOTA CITY SKY/WX TMP DP RH WIND PRES REMARKS FAIRMONT SUNNY 36 28 73 NW8 30.17F JACKSON SUNNY 36 28 75 NW8 30.16S LUVERNE N/A 34 27 75 NW12 30.20S WCI 25 MARSHALL SUNNY 37 27 67 NW10 30.17F MONTEVIDEO SUNNY 34 27 75 N9 30.16F WCI 26 PIPESTONE N/A 34 28 80 NW12 30.17S WCI 25 REDWOOD FALLS SUNNY 33 27 78 W10 30.16F WCI 25 TRACY SUNNY 37 27 67 NW9 30.17S WORTHINGTON MOSUNNY 38 29 70 NW6 30.17S $$ IAZ001>003-012>014-020>022-031-032-NEZ013-014-SDZ071-051800- NORTHWEST IOWA CITY SKY/WX TMP DP RH WIND PRES REMARKS CHEROKEE MOSUNNY 37 32 81 N6 30.19F DENISON MOSUNNY 39 30 70 NW7 30.21S ESTHERVILLE SUNNY 37 29 72 W8 30.16F LE MARS MOSUNNY 34 27 75 NW10 30.21S WCI 26 MAURICE FAIR 36 34 93 NW13 30.20F SHELDON SUNNY 34 30 86 NW9 30.17F WCI 26 SIOUX CITY MOSUNNY 33 25 72 NW14 30.23F WCI 23 SPENCER SUNNY 40 30 67 NW7 30.17F STORM LAKE SUNNY 37 32 81 NW9 30.15F $$ ABBREVIATIONS USED IN REMARKS TC - TEMPERATURE IN CELSIUS WCI - WIND CHILL INDEX HX - HEAT INDEX VSB - VISIBILITY
Office: EAX ASUS43 KEAX 051705 RWREAX WEATHER ROUNDUP FOR EASTERN KANSAS AND NORTHWEST MISSOURI NATIONAL WEATHER SERVICE KANSAS CITY/PLEASANT HILL MO 1100 AM CST SAT DEC 05 2020 KSZ040-057-103>105-MOZ028-029-037-043-051800- ...KANSAS CITY METROPOLITAN AREA... CITY SKY/WX TMP DP RH WIND PRES REMARKS K.C. INTL MOSUNNY 44 31 60 VRB6 30.18R K.C. DOWNTOWN SUNNY 43 30 60 NW6 30.18R LEES SUMMIT SUNNY 45 31 58 NW6 30.17R OLATHE - IXD SUNNY 43 29 57 NW12 30.18S OLATHE - OJC SUNNY 44 30 57 NW9 30.17S LAWRENCE SUNNY 45 30 55 NW10 30.20R $$ MOZ001>008-011>017-020>025-030>033-038>040-044>046-053-054-051800- ...NORTHERN AND CENTRAL MISSOURI... CITY SKY/WX TMP DP RH WIND PRES REMARKS ST. JOSEPH SUNNY 41 29 62 NW13 30.21R WCI 34 MOSBY SUNNY 43 32 65 NW5 30.18S HARRISONVILLE SUNNY 46 32 57 NW3 30.18F WHITEMAN AFB NOT AVBL CLINTON SUNNY 46 34 61 CALM 30.15F SEDALIA SUNNY 47 33 58 SW3 30.16F MARSHALL SUNNY 45 34 65 CALM 30.17S CHILLICOTHE N/A 46 32 58 CALM 30.17F MOBERLY SUNNY 48 32 53 SW3 30.16S KIRKSVILLE SUNNY 46 33 60 CALM 30.15F $$ MOZ041-047>049-056>058-063>065-088>090-097-051800- ...EASTERN AND SOUTHERN MISSOURI... CITY SKY/WX TMP DP RH WIND PRES REMARKS ST. LOUIS INTL SUNNY 47 32 56 CALM 30.17F SPIRIT OF STL SUNNY 47 32 56 CALM 30.17F COLUMBIA SUNNY 48 31 51 CALM 30.15F JEFFERSON CITY SUNNY 46 32 58 CALM 30.17F MEXICO SUNNY 46 32 57 S3 30.14F HANNIBAL SUNNY 46 28 49 CALM 30.16S ROLLA SUNNY 47 33 58 VRB3 30.16F LEBANON SUNNY 52 32 46 W5 30.16F OSAGE BEACH SUNNY 47 33 58 SW3 30.17F SPRINGFIELD SUNNY 54 35 48 W7 30.14F JOPLIN SUNNY 49 35 58 W6 30.18F WEST PLAINS SUNNY 53 33 46 VRB5 30.15F $$ IAZ060-094-KSZ022-034>040-054-083-096-NEZ052-066-093-051800- ...KANSAS...SOUTHEAST NEBRASKA AND IOWA... CITY SKY/WX TMP DP RH WIND PRES REMARKS TOPEKA SUNNY 45 29 53 W9 30.21S MANHATTAN SUNNY 46 27 47 N10G18 30.24F EMPORIA SUNNY 47 29 49 N16 30.21S OTTAWA FAIR 46 32 57 N14 30.17S CHANUTE SUNNY 48 32 53 N10 30.18F SALINA SUNNY 47 28 47 N16 30.27F WICHITA SUNNY 48 30 49 N17G24 30.23F OMAHA PTSUNNY 37 27 67 N10 30.22S WCI 30 LINCOLN SUNNY 42 26 53 N15 30.25F WCI 34 FALLS CITY SUNNY 41 29 62 NW10 30.21S WCI 35 LAMONI SUNNY 44 30 57 N7 30.16S DES MOINES MOSUNNY 39 29 67 CALM 30.16F $$ ASUS43 KEAX 051710 RWREAX WEATHER ROUNDUP FOR EASTERN KANSAS AND NORTHWEST MISSOURI NATIONAL WEATHER SERVICE KANSAS CITY/PLEASANT HILL MO 1100 AM CST SAT DEC 05 2020 KSZ040-057-103>105-MOZ028-029-037-043-051800- ...KANSAS CITY METROPOLITAN AREA... CITY SKY/WX TMP DP RH WIND PRES REMARKS K.C. INTL MOSUNNY 44 31 60 VRB6 30.18R K.C. DOWNTOWN SUNNY 43 30 60 NW6 30.18R LEES SUMMIT SUNNY 45 31 58 NW6 30.17R OLATHE - IXD SUNNY 43 29 57 NW12 30.18S OLATHE - OJC SUNNY 44 30 57 NW9 30.17S LAWRENCE SUNNY 45 30 55 NW10 30.20R $$ MOZ001>008-011>017-020>025-030>033-038>040-044>046-053-054-051800- ...NORTHERN AND CENTRAL MISSOURI... CITY SKY/WX TMP DP RH WIND PRES REMARKS ST. JOSEPH SUNNY 41 29 62 NW13 30.21R WCI 34 MOSBY SUNNY 43 32 65 NW5 30.18S HARRISONVILLE SUNNY 46 32 57 NW3 30.18F WHITEMAN AFB SUNNY 45 31 59 CALM 30.11F CLINTON SUNNY 46 34 61 CALM 30.15F SEDALIA SUNNY 47 33 58 SW3 30.16F MARSHALL SUNNY 45 34 65 CALM 30.17S CHILLICOTHE N/A 46 32 58 CALM 30.17F MOBERLY SUNNY 48 32 53 SW3 30.16S KIRKSVILLE SUNNY 46 33 60 CALM 30.15F $$ MOZ041-047>049-056>058-063>065-088>090-097-051800- ...EASTERN AND SOUTHERN MISSOURI... CITY SKY/WX TMP DP RH WIND PRES REMARKS ST. LOUIS INTL SUNNY 47 32 56 CALM 30.17F SPIRIT OF STL SUNNY 47 32 56 CALM 30.17F COLUMBIA SUNNY 48 31 51 CALM 30.15F JEFFERSON CITY SUNNY 46 32 58 CALM 30.17F MEXICO SUNNY 46 32 57 S3 30.14F HANNIBAL SUNNY 48 30 49 CALM 30.16F ROLLA SUNNY 47 33 58 VRB3 30.16F LEBANON SUNNY 52 32 46 W5 30.16F OSAGE BEACH SUNNY 47 33 58 SW3 30.17F SPRINGFIELD SUNNY 54 35 48 W7 30.14F BRANSON SUNNY 50 32 50 NW6 30.17F JOPLIN SUNNY 49 35 58 W6 30.18F WEST PLAINS SUNNY 53 33 46 VRB5 30.15F $$ IAZ060-094-KSZ022-034>040-054-083-096-NEZ052-066-093-051800- ...KANSAS...SOUTHEAST NEBRASKA AND IOWA... CITY SKY/WX TMP DP RH WIND PRES REMARKS TOPEKA SUNNY 45 29 53 W9 30.21S MANHATTAN SUNNY 46 27 47 N10G18 30.24F EMPORIA SUNNY 47 29 49 N16 30.21S OTTAWA FAIR 46 32 57 N14 30.17S CHANUTE SUNNY 48 32 53 N10 30.18F SALINA SUNNY 47 28 47 N16 30.27F WICHITA SUNNY 48 30 49 N17G24 30.23F OMAHA PTSUNNY 37 27 67 N10 30.22S WCI 30 LINCOLN SUNNY 42 26 53 N15 30.25F WCI 34 FALLS CITY SUNNY 41 29 62 NW10 30.21S WCI 35 LAMONI SUNNY 44 30 57 N7 30.16S DES MOINES MOSUNNY 39 29 67 CALM 30.16F $$ ASUS43 KEAX 051715 RWREAX WEATHER ROUNDUP FOR EASTERN KANSAS AND NORTHWEST MISSOURI NATIONAL WEATHER SERVICE KANSAS CITY/PLEASANT HILL MO 1100 AM CST SAT DEC 05 2020 KSZ040-057-103>105-MOZ028-029-037-043-051800- ...KANSAS CITY METROPOLITAN AREA... CITY SKY/WX TMP DP RH WIND PRES REMARKS K.C. INTL MOSUNNY 44 31 60 VRB6 30.18R K.C. DOWNTOWN SUNNY 43 30 60 NW6 30.18R LEES SUMMIT SUNNY 45 31 58 NW6 30.17R OLATHE - IXD SUNNY 43 29 57 NW12 30.18S OLATHE - OJC SUNNY 44 30 57 NW9 30.17S LAWRENCE SUNNY 45 30 55 NW10 30.20R $$ MOZ001>008-011>017-020>025-030>033-038>040-044>046-053-054-051800- ...NORTHERN AND CENTRAL MISSOURI... CITY SKY/WX TMP DP RH WIND PRES REMARKS ST. JOSEPH SUNNY 41 29 62 NW13 30.21R WCI 34 MOSBY SUNNY 45 32 61 NW6 30.17F HARRISONVILLE SUNNY 46 32 57 NW3 30.18F WHITEMAN AFB SUNNY 45 31 59 CALM 30.11F CLINTON SUNNY 46 34 61 CALM 30.15F SEDALIA SUNNY 47 33 58 SW3 30.16F MARSHALL SUNNY 46 32 57 CALM 30.16F CHILLICOTHE N/A 46 32 58 CALM 30.17F MOBERLY SUNNY 48 32 53 SW3 30.16S KIRKSVILLE SUNNY 46 33 60 CALM 30.15F $$ MOZ041-047>049-056>058-063>065-088>090-097-051800- ...EASTERN AND SOUTHERN MISSOURI... CITY SKY/WX TMP DP RH WIND PRES REMARKS ST. LOUIS INTL SUNNY 47 32 56 CALM 30.17F SPIRIT OF STL SUNNY 47 32 56 CALM 30.17F COLUMBIA SUNNY 48 31 51 CALM 30.15F JEFFERSON CITY SUNNY 46 32 58 CALM 30.17F MEXICO SUNNY 46 32 57 S3 30.14F HANNIBAL SUNNY 48 30 49 CALM 30.16F ROLLA SUNNY 47 33 58 VRB3 30.16F LEBANON SUNNY 52 32 46 W5 30.16F OSAGE BEACH SUNNY 47 33 58 SW3 30.17F SPRINGFIELD SUNNY 54 35 48 W7 30.14F BRANSON SUNNY 50 32 50 NW6 30.17F JOPLIN SUNNY 49 35 58 W6 30.18F WEST PLAINS SUNNY 53 33 46 VRB5 30.15F $$ IAZ060-094-KSZ022-034>040-054-083-096-NEZ052-066-093-051800- ...KANSAS...SOUTHEAST NEBRASKA AND IOWA... CITY SKY/WX TMP DP RH WIND PRES REMARKS TOPEKA SUNNY 45 29 53 W9 30.21S MANHATTAN SUNNY 46 27 47 N10G18 30.24F EMPORIA SUNNY 47 29 49 N16 30.21S OTTAWA FAIR 46 32 57 N14 30.17S CHANUTE SUNNY 48 32 53 N10 30.18F SALINA SUNNY 47 28 47 N16 30.27F WICHITA SUNNY 48 30 49 N17G24 30.23F OMAHA PTSUNNY 37 27 67 N10 30.22S WCI 30 LINCOLN SUNNY 42 26 53 N15 30.25F WCI 34 FALLS CITY SUNNY 41 29 62 NW10 30.21S WCI 35 LAMONI SUNNY 44 30 57 N7 30.16S DES MOINES MOSUNNY 39 29 67 CALM 30.16F $$